Weather in Vinogradny

Russia / Rostov Oblast     48°00′00″N   40°54′45″E
temp.,
°C
wind,
m/s
gust,
m/s
humid.,
%
clouds,
%
prec.,
mm/h
press.,
hPa
HPBL,
m
3 march, wed
wed300:00+2wsw91587100 1.1 1015747
03:00+1w71197100 1.6 1013622
06:000wnw61097100 1.4 1012555
09:00+1nnw71195100 1.8 1015733
12:00+2nnw7107496 0.1 10161234
15:00+3nw8106898 0.5 10181287
18:00+1nw6117080 0.2 1019702
21:00−1nw4108040 0.2 1022534
4 march, thu
thu400:00−1wnw37780 0.0 1023316
03:00−1wsw47750 0.0 1023226
06:00−1wsw510760 0.0 1022312
09:00+2wsw812660 0.0 1022701
12:00+5wsw811540 0.0 10201089
15:00+6wsw912570 0.0 10181175
18:00+3sw714690 0.0 1016560
21:00+2sw817730 0.0 1016579
5 march, fri
fri500:00+2sw8178641 0.0 1015646
03:00+2sw9178858 0.0 1014656
06:00+2sw10188779 0.0 1013716
09:00+4wsw10168080 0.0 1014826
12:00+7wsw9137386 0.0 1014917
15:00+7wsw8127392 0.0 1013903
18:00+6sw51374100 0.0 1012737
21:00+5sw51677100 0.0 1012737
6 march, sat
sat600:00+4sw61582100 0.0 1011671
03:00+4sw81785100 0.0 1010647
06:00+4wsw71388100 0.0 1010439
09:00+4nw5995100 0.1 1012500
12:00+3nnw5775100 0.3 1014803
15:00+3n5667100 0.3 10141055
18:00+2n4668100 0.1 1016895
21:000n3666100 0.1 1018524
7 march, sun
sun700:00−1n2471100 0.0 1019263
03:00−1wnw3480100 0.0 1020296
06:00−2nw577598 0.1 1021606
09:00−1wnw465771 0.1 1023864
12:00+1w564932 0.0 10221433
15:00+2wsw684333 0.0 10201462
18:000sw5114832 0.0 1019393
21:00−1sw7156016 0.0 1018589